Location: Forli
(44.2227°N, 12.0407°E)
Time: 14:23:13
(UTC+02:00)

UWE-3 - Pass Details

Date: 23 April 2026
Orbit: 542 x 613 km, 97.9° (Epoch: 10 May)

Event Time Altitude Azimuth Distance (km) Brightness Sun altitude
Rises 04:02:08 0° 14° (NNE) 2,725 ? -21.2°
Reaches altitude 10° 04:04:17 10° 15° (NNE) 1,822 ? -20.9°
Maximum altitude 04:08:12 79° 102° (ESE) 558 ? -20.4°
Enters shadow 04:09:08 51° 179° (S) 691 ? -20.3°
